Time,TemperatureF,DewpointF,PressureIn,WindDirection,WindDirectionDegrees,WindSpeedMPH,WindSpeedGustMPH,Humidity,HourlyPrecipIn,Conditions,Clouds,dailyrainin,SoftwareType,DateUTC
2013-05-11 00:03:00,61.0,55.0,29.94,WNW,282,0.0,4.0,81,0.00,,,0.00,,2013-05-11 04:03:00,
2013-05-11 00:12:00,61.0,55.0,29.94,WNW,282,0.0,4.0,81,0.00,,,0.00,,2013-05-11 04:12:00,
2013-05-11 00:23:00,60.0,55.0,29.94,WNW,282,0.0,2.0,85,0.00,,,0.00,,2013-05-11 04:23:00,
2013-05-11 00:33:00,60.0,55.0,29.94,West,278,0.0,4.0,85,0.00,,,0.00,,2013-05-11 04:33:00,
2013-05-11 00:43:00,59.0,55.0,29.93,West,260,0.0,3.0,87,0.00,,,0.00,,2013-05-11 04:43:00,
2013-05-11 00:52:00,59.0,55.0,29.93,West,260,0.0,3.0,87,0.00,,,0.00,,2013-05-11 04:52:00,
2013-05-11 01:02:00,59.0,54.0,29.93,West,264,0.0,4.0,85,0.00,,,0.00,,2013-05-11 05:02:00,
2013-05-11 01:12:00,59.0,54.0,29.93,West,264,0.0,4.0,85,0.00,,,0.00,,2013-05-11 05:12:00,
2013-05-11 01:22:00,58.0,54.0,29.93,West,260,0.0,3.0,86,0.00,,,0.00,,2013-05-11 05:22:00,
2013-05-11 01:32:00,59.0,55.0,29.93,West,267,0.0,2.0,86,0.00,,,0.00,,2013-05-11 05:32:00,
2013-05-11 01:42:00,59.0,55.0,29.93,West,267,0.0,2.0,86,0.00,,,0.00,,2013-05-11 05:42:00,
2013-05-11 01:52:00,58.0,54.0,29.92,West,267,0.0,2.0,86,0.00,,,0.00,,2013-05-11 05:52:00,
2013-05-11 02:02:00,58.0,54.0,29.91,West,274,0.0,3.0,87,0.00,,,0.00,,2013-05-11 06:02:00,
2013-05-11 02:12:00,58.0,54.0,29.91,West,274,0.0,3.0,87,0.00,,,0.00,,2013-05-11 06:12:00,
2013-05-11 02:22:00,58.0,54.0,29.90,West,274,0.0,2.0,88,0.00,,,0.00,,2013-05-11 06:22:00,
2013-05-11 02:32:00,57.0,54.0,29.90,West,274,0.0,2.0,89,0.00,,,0.00,,2013-05-11 06:32:00,
2013-05-11 02:42:00,57.0,53.0,29.89,WNW,289,1.0,4.0,87,0.00,,,0.00,,2013-05-11 06:42:00,
2013-05-11 02:52:00,57.0,53.0,29.89,WNW,289,1.0,4.0,87,0.00,,,0.00,,2013-05-11 06:52:00,
2013-05-11 03:02:00,58.0,53.0,29.88,WNW,302,0.0,3.0,84,0.00,,,0.00,,2013-05-11 07:02:00,
2013-05-11 03:12:00,58.0,53.0,29.88,WNW,302,0.0,3.0,84,0.00,,,0.00,,2013-05-11 07:12:00,
2013-05-11 03:21:00,58.0,53.0,29.88,WSW,250,0.0,4.0,83,0.00,,,0.00,,2013-05-11 07:21:00,
2013-05-11 03:32:00,57.0,53.0,29.87,WSW,250,0.0,2.0,86,0.00,,,0.00,,2013-05-11 07:32:00,
2013-05-11 03:42:00,57.0,53.0,29.87,WSW,250,0.0,2.0,86,0.00,,,0.00,,2013-05-11 07:42:00,
2013-05-11 03:52:00,56.0,52.0,29.88,WSW,249,0.0,2.0,88,0.00,,,0.00,,2013-05-11 07:52:00,
2013-05-11 04:02:00,55.0,52.0,29.88,WSW,249,0.0,2.0,89,0.00,,,0.00,,2013-05-11 08:02:00,
2013-05-11 04:12:00,55.0,52.0,29.88,WSW,249,0.0,2.0,89,0.00,,,0.00,,2013-05-11 08:12:00,
2013-05-11 04:21:00,55.0,52.0,29.88,WSW,249,0.0,1.0,90,0.00,,,0.00,,2013-05-11 08:21:00,
2013-05-11 04:32:00,55.0,52.0,29.88,WSW,249,0.0,2.0,89,0.00,,,0.00,,2013-05-11 08:32:00,
2013-05-11 04:42:00,55.0,52.0,29.88,WSW,249,0.0,2.0,89,0.00,,,0.00,,2013-05-11 08:42:00,
2013-05-11 04:52:00,55.0,52.0,29.88,WSW,249,0.0,2.0,89,0.00,,,0.00,,2013-05-11 08:52:00,
2013-05-11 05:01:00,56.0,53.0,29.87,WSW,245,0.0,2.0,89,0.00,,,0.00,,2013-05-11 09:01:00,
2013-05-11 05:11:00,56.0,53.0,29.87,WSW,245,0.0,2.0,89,0.00,,,0.00,,2013-05-11 09:11:00,
2013-05-11 05:21:00,55.0,52.0,29.87,WSW,245,0.0,3.0,89,0.00,,,0.00,,2013-05-11 09:21:00,
2013-05-11 05:32:00,56.0,53.0,29.87,SW,222,0.0,4.0,89,0.00,,,0.00,,2013-05-11 09:32:00,
2013-05-11 05:42:00,56.0,53.0,29.87,SW,222,0.0,4.0,89,0.00,,,0.00,,2013-05-11 09:42:00,
2013-05-11 05:52:00,56.0,53.0,29.87,SW,222,0.0,2.0,89,0.00,,,0.00,,2013-05-11 09:52:00,
2013-05-11 06:03:00,56.0,53.0,29.86,SW,222,0.0,3.0,89,0.00,,,0.00,,2013-05-11 10:03:00,
2013-05-11 06:12:00,56.0,53.0,29.86,SW,222,0.0,3.0,89,0.00,,,0.00,,2013-05-11 10:12:00,
2013-05-11 06:22:00,57.0,53.0,29.87,SW,222,0.0,2.0,88,0.00,,,0.00,,2013-05-11 10:22:00,
2013-05-11 06:33:00,57.0,53.0,29.87,SW,222,0.0,2.0,88,0.00,,,0.00,,2013-05-11 10:33:00,
2013-05-11 06:42:00,57.0,53.0,29.87,SW,222,0.0,2.0,88,0.00,,,0.00,,2013-05-11 10:42:00,
2013-05-11 06:52:00,57.0,53.0,29.87,SW,222,0.0,2.0,88,0.00,,,0.00,,2013-05-11 10:52:00,
2013-05-11 07:03:00,56.0,53.0,29.87,SW,222,0.0,2.0,89,0.00,,,0.00,,2013-05-11 11:03:00,
2013-05-11 07:12:00,56.0,53.0,29.87,SW,222,0.0,2.0,89,0.00,,,0.00,,2013-05-11 11:12:00,
2013-05-11 07:22:00,56.0,53.0,29.87,SW,222,0.0,3.0,89,0.00,,,0.00,,2013-05-11 11:22:00,
2013-05-11 07:32:00,57.0,54.0,29.87,SW,222,0.0,2.0,89,0.00,,,0.00,,2013-05-11 11:32:00,
2013-05-11 07:42:00,57.0,54.0,29.87,SW,222,0.0,2.0,89,0.00,,,0.00,,2013-05-11 11:42:00,
2013-05-11 07:51:00,57.0,54.0,29.86,SW,226,0.0,2.0,89,0.00,,,0.00,,2013-05-11 11:51:00,
2013-05-11 08:01:00,57.0,54.0,29.87,SW,226,0.0,1.0,89,0.00,,,0.00,,2013-05-11 12:01:00,
2013-05-11 08:11:00,57.0,54.0,29.87,SW,226,0.0,1.0,89,0.00,,,0.00,,2013-05-11 12:11:00,
2013-05-11 08:22:00,58.0,54.0,29.88,SW,226,0.0,0.0,88,0.00,,,0.00,,2013-05-11 12:22:00,
2013-05-11 08:32:00,59.0,55.0,29.88,SW,226,0.0,0.0,87,0.00,,,0.00,,2013-05-11 12:32:00,
2013-05-11 08:42:00,59.0,55.0,29.88,SW,226,0.0,0.0,87,0.00,,,0.00,,2013-05-11 12:42:00,
2013-05-11 08:51:00,59.0,55.0,29.88,SW,226,0.0,1.0,86,0.00,,,0.00,,2013-05-11 12:51:00,
2013-05-11 09:02:00,59.0,55.0,29.88,SW,226,0.0,0.0,87,0.00,,,0.00,,2013-05-11 13:02:00,
2013-05-11 09:11:00,59.0,55.0,29.88,SW,226,0.0,0.0,87,0.00,,,0.00,,2013-05-11 13:11:00,
2013-05-11 09:21:00,60.0,56.0,29.88,SW,226,0.0,0.0,88,0.00,,,0.00,,2013-05-11 13:21:00,
2013-05-11 09:32:00,62.0,56.0,29.88,SW,226,0.0,1.0,81,0.00,,,0.00,,2013-05-11 13:32:00,
2013-05-11 09:42:00,62.0,56.0,29.88,SW,226,0.0,1.0,81,0.00,,,0.00,,2013-05-11 13:42:00,
2013-05-11 09:52:00,62.0,56.0,29.88,SW,226,0.0,1.0,81,0.00,,,0.00,,2013-05-11 13:52:00,
2013-05-11 10:02:00,65.0,56.0,29.88,SW,224,0.0,1.0,74,0.00,,,0.00,,2013-05-11 14:02:00,
2013-05-11 10:11:00,65.0,56.0,29.88,SW,224,0.0,1.0,74,0.00,,,0.00,,2013-05-11 14:11:00,
2013-05-11 10:21:00,65.0,56.0,29.88,SE,129,0.0,2.0,73,0.00,,,0.00,,2013-05-11 14:21:00,
2013-05-11 10:32:00,66.0,57.0,29.87,ENE,65,0.0,2.0,72,0.00,,,0.00,,2013-05-11 14:32:00,
2013-05-11 10:42:00,66.0,57.0,29.87,ENE,65,0.0,2.0,72,0.00,,,0.00,,2013-05-11 14:42:00,
2013-05-11 10:52:00,66.0,56.0,29.88,NE,50,0.0,2.0,70,0.00,,,0.00,,2013-05-11 14:52:00,
2013-05-11 11:01:00,65.0,58.0,29.88,NE,50,0.0,1.0,79,0.00,,,0.00,,2013-05-11 15:01:00,
2013-05-11 11:11:00,65.0,58.0,29.88,NE,50,0.0,1.0,79,0.00,,,0.00,,2013-05-11 15:11:00,
2013-05-11 11:21:00,63.0,57.0,29.87,ENE,70,0.0,3.0,81,0.00,,,0.00,,2013-05-11 15:21:00,
2013-05-11 11:32:00,62.0,56.0,29.88,ENE,70,0.0,1.0,82,0.00,,,0.00,,2013-05-11 15:32:00,
2013-05-11 11:43:00,62.0,57.0,29.87,ENE,70,0.0,1.0,83,0.00,,,0.00,,2013-05-11 15:43:00,
2013-05-11 11:53:00,62.0,57.0,29.87,ENE,70,0.0,1.0,83,0.00,,,0.00,,2013-05-11 15:53:00,
2013-05-11 12:03:00,62.0,57.0,29.88,ENE,70,0.0,1.0,84,0.00,,,0.00,,2013-05-11 16:03:00,
2013-05-11 12:12:00,62.0,57.0,29.88,ENE,70,0.0,1.0,84,0.00,,,0.00,,2013-05-11 16:12:00,
2013-05-11 12:23:00,63.0,58.0,29.88,ENE,70,0.0,2.0,83,0.00,,,0.00,,2013-05-11 16:23:00,
2013-05-11 12:33:00,62.0,57.0,29.88,ENE,70,0.0,1.0,84,0.00,,,0.00,,2013-05-11 16:33:00,
2013-05-11 12:42:00,62.0,57.0,29.88,ENE,70,0.0,1.0,84,0.00,,,0.00,,2013-05-11 16:42:00,
2013-05-11 12:52:00,63.0,59.0,29.87,ENE,70,0.0,1.0,87,0.00,,,0.00,,2013-05-11 16:52:00,
2013-05-11 13:02:00,63.0,58.0,29.87,ENE,74,0.0,2.0,85,0.00,,,0.00,,2013-05-11 17:02:00,
2013-05-11 13:12:00,63.0,58.0,29.87,ENE,74,0.0,2.0,85,0.00,,,0.00,,2013-05-11 17:12:00,
2013-05-11 13:22:00,65.0,59.0,29.86,ENE,74,0.0,2.0,81,0.00,,,0.00,,2013-05-11 17:22:00,
2013-05-11 13:32:00,65.0,58.0,29.85,ENE,74,0.0,2.0,78,0.00,,,0.00,,2013-05-11 17:32:00,
2013-05-11 13:42:00,65.0,58.0,29.85,ENE,74,0.0,2.0,78,0.00,,,0.00,,2013-05-11 17:42:00,
2013-05-11 13:52:00,66.0,57.0,29.85,North,351,0.0,5.0,74,0.00,,,0.00,,2013-05-11 17:52:00,
2013-05-11 14:01:00,66.0,58.0,29.86,ENE,68,0.0,2.0,76,0.00,,,0.00,,2013-05-11 18:01:00,
2013-05-11 14:12:00,66.0,58.0,29.86,ENE,68,0.0,2.0,76,0.00,,,0.00,,2013-05-11 18:12:00,
2013-05-11 14:21:00,64.0,58.0,29.85,SW,231,0.0,2.0,81,0.02,,,0.02,,2013-05-11 18:21:00,
2013-05-11 14:32:00,66.0,60.0,29.85,SSE,164,0.0,5.0,81,0.02,,,0.02,,2013-05-11 18:32:00,
2013-05-11 14:42:00,66.0,60.0,29.85,SSE,164,0.0,5.0,81,0.02,,,0.02,,2013-05-11 18:42:00,
2013-05-11 14:52:00,67.0,58.0,29.84,WNW,288,1.0,5.0,72,0.02,,,0.02,,2013-05-11 18:52:00,
2013-05-11 15:02:00,66.0,58.0,29.84,North,356,0.0,3.0,75,0.02,,,0.02,,2013-05-11 19:02:00,
2013-05-11 15:11:00,66.0,58.0,29.84,North,356,0.0,3.0,75,0.02,,,0.02,,2013-05-11 19:11:00,
2013-05-11 15:21:00,67.0,57.0,29.83,North,357,0.0,4.0,71,0.00,,,0.02,,2013-05-11 19:21:00,
2013-05-11 15:32:00,68.0,56.0,29.83,ESE,104,1.0,4.0,66,0.00,,,0.02,,2013-05-11 19:32:00,
2013-05-11 15:42:00,68.0,56.0,29.83,ESE,104,1.0,4.0,66,0.00,,,0.02,,2013-05-11 19:42:00,
2013-05-11 15:52:00,68.0,56.0,29.83,West,280,1.0,8.0,66,0.00,,,0.02,,2013-05-11 19:52:00,
2013-05-11 16:02:00,69.0,56.0,29.82,West,272,1.0,7.0,63,0.00,,,0.02,,2013-05-11 20:02:00,
2013-05-11 16:12:00,69.0,56.0,29.82,West,272,1.0,7.0,63,0.00,,,0.02,,2013-05-11 20:12:00,
2013-05-11 16:22:00,69.0,56.0,29.81,SE,129,0.0,4.0,64,0.00,,,0.02,,2013-05-11 20:22:00,
2013-05-11 16:32:00,67.0,59.0,29.82,ENE,74,0.0,8.0,75,0.03,,,0.05,,2013-05-11 20:32:00,
2013-05-11 16:42:00,67.0,59.0,29.82,ENE,74,0.0,8.0,75,0.03,,,0.05,,2013-05-11 20:42:00,
2013-05-11 16:52:00,63.0,58.0,29.83,South,170,0.0,3.0,85,0.04,,,0.06,,2013-05-11 20:52:00,
2013-05-11 17:02:00,62.0,59.0,29.84,SW,215,0.0,1.0,89,0.08,,,0.10,,2013-05-11 21:02:00,
2013-05-11 17:11:00,62.0,59.0,29.84,SW,215,0.0,1.0,89,0.08,,,0.10,,2013-05-11 21:11:00,
2013-05-11 17:22:00,61.0,58.0,29.83,ESE,103,0.0,2.0,89,0.12,,,0.14,,2013-05-11 21:22:00,
2013-05-11 17:33:00,60.0,58.0,29.82,ESE,103,0.0,1.0,92,0.10,,,0.15,,2013-05-11 21:33:00,
2013-05-11 17:43:00,60.0,58.0,29.82,ESE,103,0.0,1.0,92,0.10,,,0.15,,2013-05-11 21:43:00,
2013-05-11 17:52:00,60.0,58.0,29.82,ESE,104,0.0,1.0,92,0.09,,,0.15,,2013-05-11 21:52:00,
2013-05-11 18:02:00,61.0,58.0,29.83,ESE,104,0.0,1.0,90,0.06,,,0.16,,2013-05-11 22:02:00,
2013-05-11 18:13:00,61.0,58.0,29.83,ESE,104,0.0,1.0,90,0.06,,,0.16,,2013-05-11 22:13:00,
2013-05-11 18:23:00,61.0,59.0,29.83,SE,126,0.0,1.0,92,0.02,,,0.16,,2013-05-11 22:23:00,
2013-05-11 18:33:00,61.0,59.0,29.83,SE,126,0.0,0.0,93,0.01,,,0.16,,2013-05-11 22:33:00,
2013-05-11 18:42:00,61.0,59.0,29.83,SE,126,0.0,0.0,93,0.01,,,0.16,,2013-05-11 22:42:00,
2013-05-11 18:52:00,61.0,59.0,29.82,SE,126,0.0,0.0,92,0.01,,,0.16,,2013-05-11 22:52:00,
2013-05-11 19:02:00,61.0,59.0,29.82,SE,125,0.0,0.0,92,0.00,,,0.16,,2013-05-11 23:02:00,
2013-05-11 19:12:00,61.0,59.0,29.82,SE,125,0.0,0.0,92,0.00,,,0.16,,2013-05-11 23:12:00,
2013-05-11 19:22:00,60.0,58.0,29.83,SE,126,0.0,0.0,92,0.00,,,0.16,,2013-05-11 23:22:00,
2013-05-11 19:32:00,60.0,58.0,29.82,SE,126,0.0,1.0,93,0.00,,,0.16,,2013-05-11 23:32:00,
2013-05-11 19:42:00,60.0,58.0,29.82,SE,126,0.0,1.0,93,0.00,,,0.16,,2013-05-11 23:42:00,
2013-05-11 19:52:00,60.0,58.0,29.82,SE,126,0.0,1.0,93,0.00,,,0.16,,2013-05-11 23:52:00,
2013-05-11 20:01:00,60.0,58.0,29.83,SE,126,0.0,0.0,93,0.00,,,0.16,,2013-05-12 00:01:00,
2013-05-11 20:12:00,60.0,58.0,29.83,SE,126,0.0,0.0,93,0.00,,,0.16,,2013-05-12 00:12:00,
2013-05-11 20:21:00,59.0,57.0,29.83,SE,126,0.0,2.0,93,0.00,,,0.16,,2013-05-12 00:21:00,
2013-05-11 20:32:00,59.0,57.0,29.83,SW,228,0.0,3.0,93,0.00,,,0.16,,2013-05-12 00:32:00,
2013-05-11 20:42:00,59.0,57.0,29.83,SW,228,0.0,3.0,93,0.00,,,0.16,,2013-05-12 00:42:00,
2013-05-11 20:52:00,59.0,57.0,29.83,SW,229,0.0,2.0,94,0.00,,,0.16,,2013-05-12 00:52:00,
2013-05-11 21:01:00,58.0,56.0,29.83,SW,229,0.0,1.0,93,0.00,,,0.16,,2013-05-12 01:01:00,
2013-05-11 21:11:00,58.0,56.0,29.83,SW,229,0.0,1.0,93,0.00,,,0.16,,2013-05-12 01:11:00,
2013-05-11 21:21:00,58.0,56.0,29.83,SW,229,0.0,1.0,93,0.00,,,0.16,,2013-05-12 01:21:00,
2013-05-11 21:32:00,57.0,55.0,29.83,SW,229,0.0,2.0,93,0.00,,,0.16,,2013-05-12 01:32:00,
2013-05-11 21:42:00,57.0,55.0,29.83,SW,229,0.0,2.0,93,0.00,,,0.16,,2013-05-12 01:42:00,
2013-05-11 21:52:00,57.0,55.0,29.84,SW,226,0.0,3.0,93,0.00,,,0.16,,2013-05-12 01:52:00,
2013-05-11 22:01:00,57.0,54.0,29.85,SSE,163,2.0,7.0,90,0.00,,,0.16,,2013-05-12 02:01:00,
2013-05-11 22:12:00,57.0,54.0,29.85,SSE,163,2.0,7.0,90,0.00,,,0.16,,2013-05-12 02:12:00,
2013-05-11 22:22:00,57.0,54.0,29.85,East,85,0.0,3.0,90,0.00,,,0.16,,2013-05-12 02:22:00,
2013-05-11 22:32:00,57.0,53.0,29.86,SSE,160,1.0,8.0,87,0.00,,,0.16,,2013-05-12 02:32:00,
2013-05-11 22:42:00,56.0,52.0,29.87,SSW,213,2.0,7.0,88,0.00,,,0.16,,2013-05-12 02:42:00,
2013-05-11 22:52:00,56.0,52.0,29.87,SSW,213,2.0,7.0,88,0.00,,,0.16,,2013-05-12 02:52:00,
2013-05-11 23:02:00,55.0,51.0,29.88,SE,140,0.0,3.0,87,0.00,,,0.16,,2013-05-12 03:02:00,
2013-05-11 23:11:00,55.0,51.0,29.88,SE,140,0.0,3.0,87,0.00,,,0.16,,2013-05-12 03:11:00,
2013-05-11 23:22:00,55.0,51.0,29.88,SW,223,1.0,9.0,85,0.00,,,0.16,,2013-05-12 03:22:00,
2013-05-11 23:33:00,55.0,51.0,29.88,SW,222,1.0,10.0,86,0.00,,,0.16,,2013-05-12 03:33:00,
2013-05-11 23:43:00,55.0,51.0,29.88,SW,222,1.0,10.0,86,0.00,,,0.16,,2013-05-12 03:43:00,
2013-05-11 23:53:00,54.0,50.0,29.89,ENE,74,0.0,3.0,86,0.00,,,0.16,,2013-05-12 03:53:00,